TimeCET,TemperatureF,Dew PointF,Humidity,Sea Level PressureIn,VisibilityMPH,Wind Direction,Wind SpeedMPH,Gust SpeedMPH,PrecipitationIn,Events,Conditions,WindDirDegrees,DateUTC
12:00 AM,51.8,51.8,100,29.80,6.2,Variable,2.3,-,N/A,Rain,Rain,0,2012-11-17 23:00:00
5:30 AM,51.8,51.8,100,29.83,6.2,WNW,3.5,-,N/A,Rain,Light Rain,300,2012-11-18 04:30:00
6:00 AM,50.0,50.0,100,29.83,6.2,Calm,Calm,-,N/A,Rain,Light Rain,0,2012-11-18 05:00:00
6:30 AM,50.0,50.0,100,29.83,6.2,Calm,Calm,-,N/A,Rain,Light Rain,0,2012-11-18 05:30:00
7:00 AM,50.0,50.0,100,29.83,6.2,Calm,Calm,-,N/A,Rain,Light Rain,0,2012-11-18 06:00:00
7:30 AM,50.0,50.0,100,29.83,6.2,Calm,Calm,-,N/A,Rain,Light Rain,0,2012-11-18 06:30:00
8:00 AM,50.0,50.0,100,29.86,6.2,Calm,Calm,-,N/A,,Mostly Cloudy,0,2012-11-18 07:00:00
8:30 AM,50.0,50.0,100,29.86,6.2,Calm,Calm,-,N/A,,Mostly Cloudy,0,2012-11-18 07:30:00
9:00 AM,51.8,51.8,100,29.86,6.2,Calm,Calm,-,N/A,,Mostly Cloudy,0,2012-11-18 08:00:00
9:30 AM,51.8,51.8,100,29.89,6.2,Calm,Calm,-,N/A,,Mostly Cloudy,0,2012-11-18 08:30:00
10:00 AM,51.8,51.8,100,29.89,6.2,Calm,Calm,-,N/A,,Mostly Cloudy,0,2012-11-18 09:00:00
10:30 AM,53.6,53.6,100,29.89,6.2,Calm,Calm,-,N/A,,Mostly Cloudy,0,2012-11-18 09:30:00
11:00 AM,53.6,51.8,94,29.92,6.2,NW,3.5,-,N/A,Rain,Light Rain,320,2012-11-18 10:00:00
11:30 AM,53.6,51.8,94,29.92,6.2,NW,12.7,-,N/A,,Mostly Cloudy,320,2012-11-18 10:30:00
12:00 PM,55.4,50.0,82,29.92,6.2,NNW,11.5,-,N/A,,Mostly Cloudy,330,2012-11-18 11:00:00
12:30 PM,53.6,50.0,88,29.92,6.2,NW,12.7,-,N/A,,Mostly Cloudy,320,2012-11-18 11:30:00
1:00 PM,53.6,50.0,88,29.92,6.2,NW,12.7,-,N/A,,Mostly Cloudy,320,2012-11-18 12:00:00
1:30 PM,55.4,48.2,77,29.92,6.2,NW,12.7,-,N/A,,Mostly Cloudy,320,2012-11-18 12:30:00
2:00 PM,55.4,48.2,77,29.92,6.2,NNW,12.7,-,N/A,,Mostly Cloudy,330,2012-11-18 13:00:00
2:30 PM,55.4,48.2,77,29.92,6.2,NW,15.0,-,N/A,,Mostly Cloudy,310,2012-11-18 13:30:00
3:00 PM,55.4,48.2,77,29.92,6.2,NW,11.5,-,N/A,,Mostly Cloudy,320,2012-11-18 14:00:00
3:30 PM,55.4,46.4,72,29.92,6.2,NNW,11.5,-,N/A,,Mostly Cloudy,340,2012-11-18 14:30:00
4:00 PM,55.4,48.2,77,29.92,6.2,North,11.5,-,N/A,,Mostly Cloudy,350,2012-11-18 15:00:00
4:30 PM,55.4,48.2,77,29.95,6.2,NNW,9.2,-,N/A,,Mostly Cloudy,330,2012-11-18 15:30:00
5:00 PM,51.8,46.4,82,29.95,6.2,North,9.2,-,N/A,,Mostly Cloudy,350,2012-11-18 16:00:00
5:30 PM,51.8,46.4,82,29.95,6.2,North,10.4,-,N/A,,Mostly Cloudy,350,2012-11-18 16:30:00
6:00 PM,51.8,46.4,82,29.95,6.2,North,11.5,-,N/A,,Mostly Cloudy,350,2012-11-18 17:00:00
6:30 PM,50.0,46.4,87,29.98,6.2,NNW,9.2,-,N/A,,Mostly Cloudy,340,2012-11-18 17:30:00
7:00 PM,48.2,44.6,87,29.98,6.2,NNW,4.6,-,N/A,,Scattered Clouds,340,2012-11-18 18:00:00
7:30 PM,50.0,44.6,82,29.98,6.2,NNW,8.1,-,N/A,,Mostly Cloudy,330,2012-11-18 18:30:00
8:00 PM,48.2,44.6,87,29.98,6.2,NNW,8.1,-,N/A,,Scattered Clouds,340,2012-11-18 19:00:00
8:30 PM,48.2,44.6,87,30.01,6.2,NW,3.5,-,N/A,,Scattered Clouds,320,2012-11-18 19:30:00
9:00 PM,46.4,44.6,93,30.01,6.2,NW,4.6,-,N/A,,Scattered Clouds,310,2012-11-18 20:00:00
9:30 PM,46.4,42.8,87,30.01,6.2,NW,3.5,-,N/A,,Scattered Clouds,310,2012-11-18 20:30:00
10:00 PM,46.4,42.8,87,30.01,6.2,Variable,2.3,-,N/A,,Scattered Clouds,0,2012-11-18 21:00:00
10:30 PM,46.4,44.6,93,30.01,6.2,WNW,1.2,-,N/A,,Scattered Clouds,300,2012-11-18 21:30:00
11:00 PM,44.6,42.8,93,30.01,6.2,Calm,Calm,-,N/A,,Partly Cloudy,0,2012-11-18 22:00:00
11:30 PM,44.6,44.6,100,30.01,6.2,Calm,Calm,-,N/A,,Partly Cloudy,0,2012-11-18 22:30:00